Regional Weather Roundup
Issued by NWS Huntsville, AL

Home | Current Version | Previous Version | Text Only | Print | Product List | Glossary On
Versions: 1 2 3 4 5 6 7 8 9 10 11 12 13 14 15 16 17 18 19 20 21 22 23 24 25 26 27 28 29 30 31 32 33 34 35 36 37 38 39 40 41 42 43 44 45 46 47 48 49 50
000
ASUS44 KHUN 252110
RWRHUN

WEATHER ROUNDUP FOR THE TENNESSEE VALLEY
NATIONAL WEATHER SERVICE HUNTSVILLE AL
300 PM CST SUN JAN 25 2015

ALZ001>004-252200-
NORTHWEST ALABAMA

CITY           SKY/WX    TMP DP  RH WIND       PRES   REMARKS
COURTLAND HCN    N/A     55 N/A N/A SW15        N/A
RUSSELLVILLE     N/A     54 N/A N/A MISG        N/A
SHOALS AIRPORT CLOUDY    55  40  56 W13       29.69S
$$

ALZ005>007-016-252200-
NORTH CENTRAL ALABAMA

CITY           SKY/WX    TMP DP  RH WIND       PRES   REMARKS
CULLMAN AG STN   N/A     57 N/A N/A SW14        N/A
DECATUR AP     CLOUDY    56  37  49 SW9       29.69F
HUNTSVILLE AP  CLOUDY    58  38  47 SW14      29.69S
MERIDIANVILLE  PTSUNNY   55  32  41 SW8       29.69S
REDSTONE ARSN  CLOUDY    57  36  45 SW13G21   29.68S
VINEMONT AP    FAIR      56  34  44 SW14G22   29.71F
$$

ALZ008>010-252200-
NORTHEAST ALABAMA

CITY           SKY/WX    TMP DP  RH WIND       PRES   REMARKS
ALBERTVILLE    PTSUNNY   57  39  51 SW15G24   29.70R
FORT PAYNE     CLOUDY    55  30  38 SW10G17   29.69F
SCOTTSBORO AP  CLOUDY    57  32  38 SW8       29.71R
VALLEY HEAD      N/A     54 N/A N/A MISG        N/A
$$

TNZ076-096-097-252200-
SOUTHEASTERN MIDDLE TENNESSEE

CITY           SKY/WX    TMP DP  RH WIND       PRES   REMARKS
TULLAHOMA      SUNNY     52  34  50 S9        29.68S
WINCHESTER     MOSUNNY   54  36  50 S9        29.69R
$$

...SURROUNDING SITES...

CITY           SKY/WX    TMP DP  RH WIND       PRES   REMARKS
ATLANTA        MOSUNNY   59  30  33 SW13      29.75F
ANNISTON       SUNNY     60  33  36 S14G26    29.72F
BIRMINGHAM     PTSUNNY   60  33  36 SW17G26   29.74F
CHATTANOOGA    CLOUDY    56  32  40 S12G17    29.70F
CORINTH        FAIR      57  41  54 W13G22    29.67R
DALTON         MOSUNNY   57  34  41 SE3       29.71F
GADSDEN        MOSUNNY   61  34  36 S14G21    29.71S
GOLDEN TRNGL   PTSUNNY   61  39  44 SW16G23   29.71S
HALEYVILLE     LGT RAIN  53  39  59 W7G22     29.73R
JACKSON TN     CLOUDY    50  42  74 W9        29.67R
LEWISBURG      PTSUNNY   51  40  66 S13       29.65S
MEMPHIS        RAIN      46  43  87 W9G18     29.73R FOG
MURFREESBORO   FAIR      55  36  49 S8        29.64F
NASHVILLE      CLOUDY    51  42  71 SW6       29.63S
OXFORD MS      PTSUNNY   54  39  58 W10G21    29.74R
ROME           SUNNY     60  35  39 S14G21    29.70F
SAVANNAH       CLOUDY    54  39  58 SW10      29.67R
TUPELO         PTSUNNY   58  39  49 W15G24    29.71R
TUSCALOOSA     MOSUNNY   64  37  36 SW18G26   29.73S
$$

...GULF COAST WEATHER...

CITY           SKY/WX    TMP DP  RH WIND       PRES   REMARKS
GULFPORT       SUNNY     63  42  46 SW13G22   29.88F
PASCAGOULA     SUNNY     60  46  59 SW9G21    29.89F
MOBILE         SUNNY     60  39  45 SW18G28   29.87F
GULF SHORES    PTCLDY    60  49  67 MISG      29.90F
PENSACOLA      MOSUNNY   61  50  67 SW18G32   29.90F
DESTIN         SUNNY     63  50  62 SW15G21   29.91F
PANAMA CITY    MOSUNNY   64  49  59 SW15G23   29.94F
APPALACHICOLA  MOSUNNY   61  45  55 S9        29.95F
$$




USA.gov is the U.S. government's official web portal to all federal, state and local government web resources and services.